Regional Weather Roundup
Issued by NWS Kansas City/Pleasant Hill, MO

Home | Current Version | Previous Version | Text Only | Print | Product List | Glossary On
Versions: 1 2 3 4 5 6 7 8 9 10 11 12 13 14 15 16 17 18 19 20 21 22 23 24 25 26 27 28 29 30 31 32 33 34 35 36 37 38 39 40 41 42 43 44 45 46 47 48 49 50
000
ASUS43 KEAX 190211
RWREAX

WEATHER ROUNDUP FOR EASTERN KANSAS AND NORTHWEST MISSOURI
NATIONAL WEATHER SERVICE KANSAS CITY/PLEASANT HILL MO
900 PM CDT SAT APR 18 2015

KSZ040-057-103>105-MOZ028-029-037-043-190300-
...KANSAS CITY METROPOLITAN AREA...

CITY           SKY/WX    TMP DP  RH WIND       PRES   REMARKS
K.C. INTL      PTCLDY    58  57  97 S6        29.84R
K.C. DOWNTOWN  PTCLDY    63  57  81 SE3       29.83S
LEES SUMMIT    CLOUDY    61  58  90 SE5       29.84S
OLATHE - IXD   CLOUDY    61  58  90 SE6       29.84S
OLATHE - OJC   PTCLDY    60  57  89 SE5       29.83S
LAWRENCE       MOCLDY    59  57  93 E6        29.84R

$$

MOZ001>008-011>017-020>025-030>033-038>040-044>046-053-054-190300-
...NORTHERN AND CENTRAL MISSOURI...

CITY           SKY/WX    TMP DP  RH WIND       PRES   REMARKS
ST. JOSEPH     PTCLDY    60  57  89 SE5       29.84S
MOSBY          PTCLDY    61  59  94 CALM      29.84F
WARRENSBURG    PTCLDY    59  55  88 CALM      29.85R
WHITEMAN AFB   MOCLDY    60  58  95 SE3       29.84S
CLINTON        MOCLDY    61  61 100 CALM      29.85R
SEDALIA        MOCLDY    61  58  90 E5        29.86S
WARSAW         NOT AVBL
MARSHALL       CLOUDY    63  63 100 E3        29.86S
CHILLICOTHE      N/A     62  59  90 CALM      29.85F
MOBERLY        CLOUDY    64  55  72 E3        29.87S
KIRKSVILLE     CLOUDY    60  58  92 E7        29.87S

$$

MOZ041-047>049-056>058-063>065-088>090-097-190300-
...EASTERN AND SOUTHERN MISSOURI...

CITY           SKY/WX    TMP DP  RH WIND       PRES   REMARKS
ST. LOUIS INTL CLOUDY    72  55  55 E7        29.88S
SPIRIT OF STL  CLOUDY    70  56  61 E5        29.85S
COLUMBIA       CLOUDY    64  59  83 E7        29.87S
JEFFERSON CITY CLOUDY    67  59  75 E10       29.86S
MEXICO         LGT RAIN  63  61  94 E10G16    29.89S
HANNIBAL       CLOUDY    66  55  68 NE5       29.88F
ROLLA          CLOUDY    60  58  92 NE3       29.85S
LEBANON        CLEAR     61  59  94 E5        29.86S
OSAGE BEACH    PTCLDY    61  57  88 NE3       29.86R
SPRINGFIELD    PTCLDY    63  57  81 NE5       29.83S
BRANSON        MOCLDY    59  59 100 CALM      29.84F
NEVADA         MOCLDY    57  55  94 E5        29.84S
JOPLIN         CLEAR     63  57  81 E7        29.81F
WEST PLAINS    PTCLDY    64  51  62 CALM      29.86S

$$

IAZ060-094-KSZ022-034>040-054-083-096-NEZ052-066-093-190300-
...KANSAS...SOUTHEAST NEBRASKA AND IOWA...

CITY           SKY/WX    TMP DP  RH WIND       PRES   REMARKS
TOPEKA         CLEAR     61  58  90 E7        29.83S
MANHATTAN      LGT RAIN  55  54  96 W5        29.86R
EMPORIA        CLOUDY    56  51  84 NW17G29   29.84R
CHANUTE        FAIR      62  59  90 E8        29.81R
WICHITA        HAIL      55  52  89 N10       29.81S
OMAHA          CLOUDY    58  56  93 SE8       29.83S
LINCOLN        MOCLDY    61  56  83 SE13      29.82F
FALLS CITY     PTCLDY    57  55  93 CALM      29.82F
LAMONI         CLOUDY    61  59  93 CALM      29.84S
DES MOINES     LGT RAIN  62  59  90 NE6       29.83S

$$



USA.gov is the U.S. government's official web portal to all federal, state and local government web resources and services.